Regional Weather Roundup
Issued by NWS

Home | Current Version | Previous Version | Graphics & Text | Print | Product List | Glossary On
Versions: 1 2 3 4 5 6 7 8 9 10 11 12 13 14 15 16 17 18 19 20 21 22 23 24 25 26 27 28 29 30 31 32 33 34 35 36 37 38 39 40 41 42 43 44 45 46 47 48 49 50
000
ASUS44 KMEG 010510
RWRTN
TENNESSEE HOURLY STATE WEATHER ROUNDUP
NATIONAL WEATHER SERVICE MEMPHIS TN
1200 AM CDT TUE SEP 01 2015

TNZ002-004-019-021-049-052-054-088>092-010600-
WEST TENNESSEE

CITY           SKY/WX    TMP DP  RH WIND       PRES   REMARKS
MEMPHIS INTL   PTCLDY    79  68  69 SE6       30.07S
NWS MEMPHIS      N/A     74 N/A N/A MISG        N/A
JACKSON        PTCLDY    68  66  93 CALM      30.08S FOG
DYERSBURG      CLEAR     72  70  94 SE3       30.09R
UNION CITY     CLEAR    N/A N/A N/A CALM      30.08R
PARIS          CLEAR     64  63  94 CALM      30.10S
LEXINGTON      CLEAR     68  66  94 CALM      30.09R
$$

TNZ008-025-027-028-033-062-065-066-010600-
NORTH MIDDLE TENNESSEE

CITY           SKY/WX    TMP DP  RH WIND       PRES   REMARKS
NASHVILLE      CLEAR     72  66  81 CALM      30.11S
CLARKSVILLE    CLEAR     68  66  93 CALM      30.10S
SMYRNA         CLEAR     68  67  96 CALM      30.12S
COOKEVILLE     CLEAR     64  64 100 CALM      30.13S
CROSSVILLE     CLEAR     67  64  90 CALM      30.18S FOG
$$

TNZ061-075-076-078-094-096-097-010600-
SOUTH MIDDLE TENNESSEE

CITY           SKY/WX    TMP DP  RH WIND       PRES   REMARKS
FAYETTEVILLE     N/A     66  66 100 CALM      30.12S
TULLAHOMA      CLEAR     66  64  94 CALM      30.14S
WINCHESTER     CLEAR     66  64  94 CALM      30.13S
MCMINNVILLE    CLOUDY    66  66 100 CALM      30.14S VSB 1/4
COLUMBIA       CLEAR     70  70 100 CALM      30.10S
SHELBYVILLE    CLEAR     70  70 100 CALM      30.12F
$$

TNZ017-018-042-046-047-010600-
NORTHEAST TENNESSEE

CITY           SKY/WX    TMP DP  RH WIND       PRES   REMARKS
TRI CITIES     PTCLDY    65  64  97 CALM      30.16R
ELIZABETHTON   CLEAR     64  61  88 CALM      30.17S
$$

TNZ012-013-036-069-073-074-010600-
CENTRAL EAST TENNESSEE

CITY           SKY/WX    TMP DP  RH WIND       PRES   REMARKS
KNOXVILLE      PTCLDY    71  68  90 CALM      30.12S
OAK RIDGE      CLEAR     69  66  90 CALM      30.14S
GATLINBURG     PTCLDY    66  63  88 CALM      30.13S
MORRISTOWN     CLEAR     68  64  88 CALM      30.15S
$$

TNZ083-085-099-010600-
SOUTHEAST TENNESSEE

CITY           SKY/WX    TMP DP  RH WIND       PRES   REMARKS
CHATTANOOGA    CLEAR     71  67  87 CALM      30.12S
$$

SKY/WX REPORTED AS FAIR MEANS FEW OR NO CLOUDS BELOW
12 THOUSAND FEET.




USA.gov is the U.S. government's official web portal to all federal, state and local government web resources and services.